Detroit Lakes, MN

6:58 PM CDT on October 21, 2017 (GMT -0500)
Detroit Lakes

Weather History for KDTL - May, 2013

Change the Weather History Date:

Wednesday, May 22, 2013

  Actual Average Record
Temperature  
Mean Temperature 56 °F -  
Max Temperature 69 °F 72 °F 91 °F (1964)
Min Temperature 44 °F 47 °F 25 °F (1963)
Degree Days  
Heating Degree Days 8    
Growing Degree Days 6 (Base 50)    
Moisture  
Dew Point 42 °F    
Average Humidity 67    
Maximum Humidity 100    
Minimum Humidity 24    
Precipitation  
Precipitation 0.01 in - - ()
Sea Level Pressure  
Sea Level Pressure 29.92 in    
Wind  
Wind Speed 13 mph (NE)    
Max Wind Speed 25 mph    
Max Gust Speed 31 mph    
Visibility 10 miles    
Events Rain    
Averages and records for this station are not official NWS values.
T = Trace of Precipitation, MM = Missing Value Source: NWS Daily Summary

Daily Weather History Graph

Daily Weather History Graph

Search for Another Location

Airport or City:

Trip Planner

Search our weather history database for the weather conditions in past years. The results will help you decide how hot, cold, wet, or windy it might be!

Date:

Astronomy

May. 22, 2013 Rise Set
Actual Time 5:40 AM CDT 9:00 PM CDT
Civil Twilight 5:03 AM CDT 9:37 PM CDT
Nautical Twilight 4:15 AM CDT 10:26 PM CDT
Astronomical Twilight 3:13 AM CDT 11:28 PM CDT
Moon 6:15 PM CDT (5/22) 3:56 AM CDT (5/22)
Length of Visible Light 16h 33m
Length of Day
15h 19m
Waxing Gibbous, 91% of the Moon is Illuminated
May 22
Waxing Gibbous
May 24
Full
May 31
Last Quarter
Jun 8
New
Jun 16
First Quarter

Hourly Weather History & Observations

Time (CDT) Temp. Windchill Dew Point Humidity Pressure Visibility Wind Dir Wind Speed Gust Speed Precip Events Conditions
12:15 AM 46.4 °F 40.4 °F 42.8 °F 87% 29.85 in 10.0 mi ENE 13.8 mph 17.3 mph N/A   Overcast
12:35 AM 46.4 °F 40.7 °F 42.8 °F 87% 29.84 in 10.0 mi ENE 12.7 mph 16.1 mph N/A   Overcast
12:56 AM 44.6 °F 38.8 °F 42.8 °F 93% 29.85 in 10.0 mi ENE 11.5 mph 23.0 mph N/A   Overcast
1:15 AM 44.6 °F 38.4 °F 42.8 °F 93% 29.84 in 10.0 mi ENE 12.7 mph 18.4 mph N/A   Overcast
1:35 AM 44.6 °F 39.2 °F 42.8 °F 93% 29.83 in 10.0 mi ENE 10.4 mph 19.6 mph N/A   Overcast
1:56 AM 44.6 °F 38.1 °F 42.8 °F 93% 29.83 in 10.0 mi NE 13.8 mph 19.6 mph N/A   Overcast
2:15 AM 44.6 °F 39.2 °F 42.8 °F 93% 29.83 in 10.0 mi ENE 10.4 mph - N/A   Overcast
2:35 AM 44.6 °F 39.7 °F 42.8 °F 93% 29.84 in 10.0 mi NE 9.2 mph - N/A   Overcast
2:56 AM 44.6 °F 40.2 °F 42.8 °F 93% 29.84 in 10.0 mi NE 8.1 mph 16.1 mph N/A   Overcast
3:15 AM 44.6 °F 39.7 °F 42.8 °F 93% 29.83 in 10.0 mi ENE 9.2 mph - N/A   Overcast
3:35 AM 44.6 °F 38.1 °F 42.8 °F 93% 29.83 in 10.0 mi ENE 13.8 mph 19.6 mph N/A   Overcast
3:56 AM 44.6 °F 39.2 °F 42.8 °F 93% 29.84 in 10.0 mi NE 10.4 mph 16.1 mph N/A   Overcast
4:15 AM 44.6 °F 39.7 °F 42.8 °F 93% 29.84 in 10.0 mi NE 9.2 mph - N/A   Overcast
4:35 AM 44.6 °F 39.7 °F 42.8 °F 93% 29.84 in 10.0 mi NE 9.2 mph - N/A   Overcast
4:56 AM 44.6 °F 39.7 °F 42.8 °F 93% 29.84 in 10.0 mi NE 9.2 mph - N/A   Overcast
5:15 AM 44.6 °F 39.2 °F 42.8 °F 93% 29.84 in 10.0 mi NE 10.4 mph - N/A   Overcast
5:35 AM 44.6 °F 39.2 °F 42.8 °F 93% 29.85 in 10.0 mi NE 10.4 mph - N/A   Overcast
5:56 AM 46.4 °F 41.5 °F 42.8 °F 87% 29.85 in 10.0 mi NE 10.4 mph - N/A   Overcast
6:15 AM 44.6 °F 38.8 °F 42.8 °F 93% 29.85 in 5.0 mi NE 11.5 mph - N/A   Overcast
6:36 AM 44.6 °F 39.2 °F 44.6 °F 100% 29.85 in 7.0 mi NE 10.4 mph - N/A   Overcast
6:55 AM 44.6 °F 38.1 °F 42.8 °F 93% 29.85 in 10.0 mi NE 13.8 mph 17.3 mph N/A   Overcast
7:15 AM 44.6 °F 38.8 °F 42.8 °F 93% 29.86 in 10.0 mi NE 11.5 mph 18.4 mph N/A   Light Drizzle
7:35 AM 46.4 °F 40.7 °F 44.6 °F 93% 29.86 in 10.0 mi NE 12.7 mph - N/A   Light Drizzle
7:55 AM 46.4 °F 41.1 °F 44.6 °F 93% 29.87 in 7.0 mi NE 11.5 mph - N/A Rain Rain
8:16 AM 46.4 °F 40.4 °F 44.6 °F 93% 29.87 in 7.0 mi NE 13.8 mph - 0.01 in Rain Rain
8:35 AM 46.4 °F 40.4 °F 44.6 °F 93% 29.87 in 10.0 mi NE 13.8 mph 17.3 mph 0.01 in   Light Drizzle
8:55 AM 46.4 °F 41.1 °F 44.6 °F 93% 29.87 in 10.0 mi NE 11.5 mph - 0.01 in   Overcast
9:16 AM 46.4 °F 41.1 °F 44.6 °F 93% 29.88 in 10.0 mi NE 11.5 mph 19.6 mph N/A   Overcast
9:35 AM 48.2 °F - 44.6 °F 87% 29.88 in 10.0 mi NE 13.8 mph 20.7 mph N/A   Overcast
9:55 AM 50.0 °F - 44.6 °F 82% 29.88 in 10.0 mi NE 13.8 mph - N/A   Overcast
10:16 AM 50.0 °F - 44.6 °F 82% 29.89 in 10.0 mi ENE 15.0 mph 21.9 mph N/A   Overcast
10:35 AM 51.8 °F - 46.4 °F 82% 29.89 in 10.0 mi ENE 13.8 mph 19.6 mph N/A   Overcast
10:55 AM 51.8 °F - 46.4 °F 82% 29.89 in 10.0 mi ENE 16.1 mph 23.0 mph N/A   Overcast
11:15 AM 51.8 °F - 46.4 °F 82% 29.90 in 10.0 mi ENE 17.3 mph 25.3 mph N/A   Overcast
11:35 AM 53.6 °F - 46.4 °F 77% 29.90 in 10.0 mi ENE 15.0 mph 23.0 mph N/A   Mostly Cloudy
11:56 AM 55.4 °F - 46.4 °F 72% 29.91 in 10.0 mi ENE 12.7 mph 24.2 mph N/A   Mostly Cloudy
12:15 PM 55.4 °F - 46.4 °F 72% 29.91 in 10.0 mi ENE 16.1 mph 23.0 mph N/A   Mostly Cloudy
12:35 PM 57.2 °F - 46.4 °F 67% 29.92 in 10.0 mi East 21.9 mph 27.6 mph N/A   Mostly Cloudy
12:55 PM 59.0 °F - 46.4 °F 63% 29.92 in 10.0 mi East 20.7 mph 28.8 mph N/A   Mostly Cloudy
1:15 PM 59.0 °F - 46.4 °F 63% 29.93 in 10.0 mi East 15.0 mph 27.6 mph N/A   Scattered Clouds
1:35 PM 60.8 °F - 46.4 °F 59% 29.93 in 10.0 mi East 25.3 mph 31.1 mph N/A   Scattered Clouds
1:55 PM 60.8 °F - 46.4 °F 59% 29.93 in 10.0 mi East 16.1 mph 23.0 mph N/A   Scattered Clouds
2:15 PM 62.6 °F - 46.4 °F 55% 29.93 in 10.0 mi ENE 13.8 mph 23.0 mph N/A   Scattered Clouds
2:35 PM 64.4 °F - 46.4 °F 52% 29.93 in 10.0 mi ENE 11.5 mph 23.0 mph N/A   Clear
2:55 PM 64.4 °F - 44.6 °F 49% 29.93 in 10.0 mi NE 20.7 mph 27.6 mph N/A   Clear
3:15 PM 64.4 °F - 44.6 °F 49% 29.93 in 10.0 mi ENE 17.3 mph 26.5 mph N/A   Clear
3:35 PM 66.2 °F - 44.6 °F 46% 29.93 in 10.0 mi East 16.1 mph 20.7 mph N/A   Clear
3:55 PM 68.0 °F - 42.8 °F 40% 29.93 in 10.0 mi ENE 18.4 mph 24.2 mph N/A   Clear
4:15 PM 68.0 °F - 39.2 °F 35% 29.93 in 10.0 mi East 17.3 mph 21.9 mph N/A   Clear
4:36 PM 68.0 °F - 39.2 °F 35% 29.93 in 10.0 mi NE 6.9 mph 17.3 mph N/A   Clear
4:55 PM 68.0 °F - 39.2 °F 35% 29.93 in 10.0 mi ENE 15.0 mph 23.0 mph N/A   Scattered Clouds
5:15 PM 69.8 °F - 35.6 °F 28% 29.94 in 10.0 mi NNE 20.7 mph 26.5 mph N/A   Clear
5:36 PM 69.8 °F - 33.8 °F 27% 29.95 in 10.0 mi ENE 17.3 mph 25.3 mph N/A   Clear
5:55 PM 69.8 °F - 32.0 °F 25% 29.95 in 10.0 mi NE 15.0 mph - N/A   Clear
6:15 PM 69.8 °F - 32.0 °F 25% 29.96 in 10.0 mi NE 15.0 mph 20.7 mph N/A   Clear
6:36 PM 68.0 °F - 30.2 °F 24% 29.96 in 10.0 mi NE 13.8 mph 23.0 mph N/A   Clear
6:55 PM 68.0 °F - 30.2 °F 24% 29.97 in 10.0 mi ENE 12.7 mph 21.9 mph N/A   Clear
7:15 PM 68.0 °F - 32.0 °F 26% 29.98 in 10.0 mi ENE 10.4 mph 17.3 mph N/A   Clear
7:36 PM 68.0 °F - 32.0 °F 26% 29.98 in 10.0 mi NE 11.5 mph 17.3 mph N/A   Clear
7:55 PM 68.0 °F - 33.8 °F 28% 29.99 in 10.0 mi NE 12.7 mph 18.4 mph N/A   Clear
8:15 PM 66.2 °F - 33.8 °F 30% 30.00 in 10.0 mi NE 12.7 mph - N/A   Clear
8:36 PM 64.4 °F - 35.6 °F 34% 30.01 in 10.0 mi NE 9.2 mph - N/A   Clear
8:55 PM 62.6 °F - 35.6 °F 37% 30.01 in 10.0 mi NE 9.2 mph - N/A   Clear
9:15 PM 62.6 °F - 42.8 °F 48% 30.02 in 10.0 mi NNE 4.6 mph - N/A   Scattered Clouds
9:36 PM 60.8 °F - 41.0 °F 48% 30.03 in 10.0 mi NNE 4.6 mph - N/A   Scattered Clouds
9:55 PM 60.8 °F - 41.0 °F 48% 30.04 in 10.0 mi NNE 6.9 mph - N/A   Clear
10:15 PM 60.8 °F - 41.0 °F 48% 30.05 in 10.0 mi NNE 11.5 mph - N/A   Scattered Clouds
10:36 PM 60.8 °F - 41.0 °F 48% 30.06 in 10.0 mi NE 10.4 mph - N/A   Clear
10:55 PM 60.8 °F - 42.8 °F 52% 30.07 in 10.0 mi NE 8.1 mph - N/A   Scattered Clouds
11:15 PM 59.0 °F - 42.8 °F 55% 30.07 in 10.0 mi NE 10.4 mph - N/A   Clear
11:36 PM 59.0 °F - 42.8 °F 55% 30.08 in 10.0 mi NE 9.2 mph - N/A   Clear
11:55 PM 59.0 °F - 42.8 °F 55% 30.09 in 10.0 mi NE 8.1 mph - N/A   Clear